Weather History for Cut Bank, MT

Change the Weather History Date:

Wednesday, December 5, 2012

  Actual Average Record
Temperature  
Mean Temperature 36 °F 24 °F  
Max Temperature 48 °F 33 °F 67 °F (1939)
Min Temperature 24 °F 14 °F -26 °F (1956)
Degree Days  
Heating Degree Days 29 41  
Month to date heating degree days 138 204  
Since 1 July heating degree days 2278 2467  
Cooling Degree Days 0 0  
Month to date cooling degree days 0 0  
Year to date cooling degree days 210 162  
Moisture  
Dew Point 23 °F    
Average Humidity 52    
Maximum Humidity 73    
Minimum Humidity 30    
Precipitation  
Precipitation 0.00 in 0.01 in 0.30 in (1932)
Month to date precipitation 0.00 0.04  
Year to date precipitation 8.99 10.72  
Snow  
Snow 0.00 in - - ()
Snow Depth 0.00 in    
Sea Level Pressure  
Sea Level Pressure 29.75 in    
Wind  
Wind Speed 25 mph (WSW)    
Max Wind Speed 53 mph    
Max Gust Speed 63 mph    
Visibility 10 miles    
Events      
T = Trace of Precipitation, MM = Missing Value Source: NWS Daily Summary

Daily Weather History Graph

Daily Weather History Graph

Search for Another Location

Airport:

Trip Planner

Search our weather history database for the weather conditions in past years. The results will help you decide how hot, cold, wet, or windy it might be!

Date:

Astronomy

Dec. 05, 2012 Rise Set
Actual Time 8:06 AM MST 4:34 PM MST
Civil Twilight 7:29 AM MST 5:10 PM MST
Nautical Twilight 6:49 AM MST 5:50 PM MST
Astronomical Twilight 6:11 AM MST 6:28 PM MST
Moon 11:53 PM MST (12/5) 12:08 PM MST (12/5)
Length of Visible Light 9h 41m
Length of Day
8h 28m
Waning Gibbous, 59% of the Moon is Illuminated
Dec 5
Waning Gibbous
Dec 6
Last Quarter
Dec 13
New
Dec 19
First Quarter
Dec 28
Full

Hourly Weather History & Observations

Time (MST) Temp. Windchill Dew Point Humidity Pressure Visibility Wind Dir Wind Speed Gust Speed Precip Events Conditions
12:56 AM 45.0 °F 38.2 °F 32.0 °F 60% 29.60 in 10.0 mi ESE 15.0 mph 25.3 mph N/A   Clear
1:56 AM 41.0 °F 35.2 °F 30.0 °F 65% 29.58 in 10.0 mi SSE 9.2 mph - N/A   Clear
2:56 AM 45.0 °F 36.4 °F 34.0 °F 65% 29.56 in 10.0 mi SW 23.0 mph 31.1 mph N/A   Clear
3:56 AM 46.0 °F 36.9 °F 35.1 °F 66% 29.54 in 10.0 mi WSW 28.8 mph 38.0 mph N/A   Clear
4:56 AM 43.0 °F 33.8 °F 34.0 °F 71% 29.55 in 10.0 mi West 23.0 mph 27.6 mph N/A   Clear
5:56 AM 44.1 °F 35.4 °F 33.1 °F 65% 29.53 in 10.0 mi WSW 21.9 mph - N/A   Partly Cloudy
7:56 AM 45.0 °F 33.6 °F 30.9 °F 58% 29.52 in 10.0 mi WSW 42.6 mph 51.8 mph N/A   Clear
8:56 AM 45.0 °F 34.6 °F 28.0 °F 52% 29.56 in 10.0 mi WSW 34.5 mph 41.4 mph N/A   Clear
9:56 AM 42.1 °F 30.0 °F 30.9 °F 65% 29.59 in 10.0 mi WSW 39.1 mph 54.1 mph N/A   Clear
10:56 AM 45.0 °F 33.7 °F 16.0 °F 31% 29.63 in 10.0 mi WSW 41.4 mph 56.4 mph N/A   Clear
11:56 AM 43.0 °F 30.8 °F 18.0 °F 37% 29.65 in 10.0 mi West 42.6 mph 54.1 mph N/A   Clear
12:56 PM 42.1 °F 30.6 °F 14.0 °F 32% 29.69 in 10.0 mi West 34.5 mph 48.3 mph N/A   Clear
1:56 PM 39.9 °F 27.3 °F 14.0 °F 35% 29.76 in 10.0 mi West 36.8 mph 44.9 mph N/A   Clear
2:56 PM 37.9 °F 25.5 °F 16.0 °F 41% 29.78 in 10.0 mi West 31.1 mph 39.1 mph N/A   Clear
3:56 PM 34.0 °F 20.3 °F 17.1 °F 50% 29.84 in 10.0 mi WNW 29.9 mph 40.3 mph N/A   Clear
4:56 PM 30.0 °F 15.4 °F 19.9 °F 66% 29.90 in 10.0 mi WNW 27.6 mph 34.5 mph N/A   Clear
5:56 PM 28.9 °F 15.8 °F 19.9 °F 69% 29.94 in 10.0 mi WNW 20.7 mph 27.6 mph N/A   Clear
6:56 PM 26.1 °F 15.6 °F 18.0 °F 71% 30.00 in 10.0 mi WNW 11.5 mph - N/A   Clear
7:56 PM 28.9 °F 16.1 °F 18.0 °F 64% 29.99 in 10.0 mi West 19.6 mph - N/A   Clear
8:56 PM 28.9 °F 19.8 °F 16.0 °F 58% 30.01 in 10.0 mi WSW 10.4 mph - N/A   Clear
9:56 PM 26.1 °F 17.6 °F 16.0 °F 66% 30.04 in 10.0 mi WSW 8.1 mph - N/A   Clear
10:56 PM 28.0 °F 17.5 °F 17.1 °F 63% 30.02 in 10.0 mi WSW 12.7 mph - N/A   Clear
11:56 PM 30.0 °F 18.7 °F 16.0 °F 56% 30.01 in 10.0 mi West 16.1 mph - N/A   Clear